• In Russia
  • List of Countries
  • For 7 days
  • Water Temperature
  • Satellite Maps
  • Weather Map
  • Weather Widgets
  • user-avatar
    Login

    Hourly Weather Sankt Polten

    Today, 27 March, Monday

    Time Temperature Precipitation Wind Pressure Humidity
    00:00 +2°C° 0 mm 1 mps 742 mmHg 86%
    01:00 +1°C° 0 mm 1 mps 742 mmHg 88%
    02:00 +1°C° 0 mm 1 mps 742 mmHg 87%
    03:00 +1°C° 0 mm 1 mps 742 mmHg 87%
    04:00 +1°C° 0 mm 1 mps 742 mmHg 86%
    05:00 +2°C° 0 mm 1 mps 743 mmHg 80%
    06:00 +3°C° 0 mm 1 mps 743 mmHg 73%
    07:00 +5°C° 0 mm 1 mps 743 mmHg 61%
    08:00 +7°C° 0 mm 1 mps 743 mmHg 54%
    09:00 +9°C° 0 mm 1 mps 743 mmHg 46%
    10:00 +11°C° 0 mm 1 mps 743 mmHg 39%
    11:00 +12°C° 0 mm 1 mps 743 mmHg 38%
    12:00 +13°C° 0 mm 2 mps 742 mmHg 36%
    13:00 +14°C° 0 mm 2 mps 742 mmHg 35%
    14:00 +14°C° 0 mm 2 mps 742 mmHg 38%
    15:00 +14°C° 0 mm 2 mps 741 mmHg 42%
    16:00 +14°C° 0 mm 2 mps 741 mmHg 45%
    17:00 +10°C° 0 mm 2 mps 741 mmHg 55%
    18:00 +8°C° 0 mm 1 mps 741 mmHg 66%
    19:00 +5°C° 0 mm 1 mps 741 mmHg 76%
    20:00 +5°C° 0 mm 1 mps 741 mmHg 76%
    21:00 +5°C° 0 mm 1 mps 741 mmHg 75%
    22:00 +4°C° 0 mm 1 mps 741 mmHg 74%
    23:00 +4°C° 0 mm 1 mps 741 mmHg 75%

    Tomorrow, 28 March, Tuesday

    Time Temperature Precipitation Wind Pressure Humidity
    00:00 +4°C° 0 mm 1 mps 741 mmHg 75%
    01:00 +4°C° 0 mm 1 mps 741 mmHg 76%
    02:00 +4°C° 0 mm 1 mps 741 mmHg 76%
    03:00 +4°C° 0 mm 1 mps 741 mmHg 75%
    04:00 +4°C° 0 mm 1 mps 741 mmHg 75%
    05:00 +5°C° 0 mm 1 mps 741 mmHg 72%
    06:00 +6°C° 0 mm 1 mps 741 mmHg 69%
    07:00 +6°C° 0 mm 0 mps 741 mmHg 65%
    08:00 +10°C° 0 mm 1 mps 741 mmHg 58%
    09:00 +12°C° 0 mm 1 mps 741 mmHg 51%
    10:00 +15°C° 0 mm 1 mps 741 mmHg 44%
    11:00 +16°C° 0 mm 1 mps 741 mmHg 44%
    12:00 +18°C° 0 mm 1 mps 741 mmHg 43%
    13:00 +19°C° 0 mm 1 mps 741 mmHg 43%
    14:00 +19°C° 0 mm 1 mps 741 mmHg 46%
    15:00 +18°C° 0 mm 1 mps 740 mmHg 49%
    16:00 +18°C° 0 mm 1 mps 740 mmHg 53%
    17:00 +14°C° 0 mm 1 mps 740 mmHg 64%
    18:00 +11°C° 0 mm 1 mps 740 mmHg 76%
    19:00 +8°C° 0 mm 1 mps 740 mmHg 87%
    20:00 +8°C° 0 mm 1 mps 740 mmHg 88%
    21:00 +7°C° 0 mm 2 mps 741 mmHg 88%
    22:00 +8°C° 0 mm 2 mps 741 mmHg 89%
    23:00 +8°C° 0 mm 2 mps 741 mmHg 89%

    Day after tomorrow, 29 March, Wednesday

    Time Temperature Precipitation Wind Pressure Humidity
    00:00 +8°C° 0 mm 2 mps 741 mmHg 90%
    01:00 +8°C° 0 mm 2 mps 742 mmHg 91%
    02:00 +8°C° 0 mm 2 mps 742 mmHg 92%
    03:00 +7°C° 0 mm 2 mps 742 mmHg 93%
    04:00 +7°C° 0 mm 2 mps 742 mmHg 93%
    05:00 +8°C° 0 mm 2 mps 742 mmHg 92%
    06:00 +8°C° 0 mm 2 mps 742 mmHg 90%
    07:00 +9°C° 0 mm 2 mps 742 mmHg 89%
    08:00 +11°C° 0 mm 3 mps 742 mmHg 82%
    09:00 +13°C° 0 mm 3 mps 743 mmHg 75%
    10:00 +15°C° 0 mm 4 mps 743 mmHg 68%
    11:00 +15°C° 0 mm 4 mps 742 mmHg 66%
    12:00 +17°C° 0 mm 4 mps 742 mmHg 64%
    13:00 +18°C° 0 mm 4 mps 742 mmHg 61%
    14:00 +18°C° 0 mm 4 mps 741 mmHg 62%
    15:00 +17°C° 0 mm 4 mps 741 mmHg 63%
    16:00 +17°C° 0 mm 4 mps 741 mmHg 64%
    17:00 +14°C° 0 mm 3 mps 741 mmHg 72%
    18:00 +13°C° 0 mm 3 mps 741 mmHg 81%
    19:00 +12°C° 0 mm 2 mps 741 mmHg 90%
    20:00 +10°C° 0 mm 2 mps 742 mmHg 91%
    21:00 +10°C° 0 mm 2 mps 742 mmHg 92%
    22:00 +9°C° 0 mm 2 mps 743 mmHg 93%
    23:00 +9°C° 0 mm 2 mps 743 mmHg 93%

    30 March, Thursday

    Time Temperature Precipitation Wind Pressure Humidity
    00:00 +9°C° 0 mm 2 mps 743 mmHg 93%
    01:00 +9°C° 0 mm 2 mps 743 mmHg 94%
    02:00 +8°C° 0 mm 2 mps 743 mmHg 94%
    03:00 +8°C° 0 mm 2 mps 743 mmHg 94%
    04:00 +8°C° 0 mm 2 mps 743 mmHg 95%
    05:00 +9°C° 0 mm 2 mps 743 mmHg 93%
    06:00 +9°C° 0 mm 2 mps 743 mmHg 92%
    07:00 +10°C° 0 mm 2 mps 744 mmHg 90%
    08:00 +13°C° 0 mm 2 mps 744 mmHg 82%
    09:00 +15°C° 0 mm 2 mps 744 mmHg 74%
    10:00 +16°C° 0 mm 2 mps 744 mmHg 67%
    11:00 +17°C° 0 mm 2 mps 743 mmHg 63%
    12:00 +18°C° 0 mm 2 mps 743 mmHg 60%
    13:00 +19°C° 0 mm 2 mps 743 mmHg 57%
    14:00 +19°C° 0 mm 2 mps 743 mmHg 58%
    15:00 +20°C° 0 mm 1 mps 742 mmHg 59%
    16:00 +20°C° 0 mm 1 mps 742 mmHg 60%
    17:00 +16°C° 0 mm 1 mps 742 mmHg 69%
    18:00 +14°C° 0 mm 1 mps 742 mmHg 79%
    19:00 +11°C° 0 mm 1 mps 742 mmHg 89%
    20:00 +11°C° 0 mm 1 mps 742 mmHg 90%
    21:00 +11°C° 0 mm 1 mps 742 mmHg 91%
    22:00 +11°C° 0 mm 1 mps 743 mmHg 92%
    23:00 +10°C° 0 mm 1 mps 742 mmHg 92%

    31 March, Friday

    Time Temperature Precipitation Wind Pressure Humidity
    00:00 +10°C° 0 mm 1 mps 742 mmHg 92%
    01:00 +10°C° 0 mm 1 mps 742 mmHg 92%
    02:00 +10°C° 0 mm 1 mps 742 mmHg 93%
    03:00 +9°C° 0 mm 1 mps 742 mmHg 93%
    04:00 +9°C° 0 mm 1 mps 741 mmHg 94%
    05:00 +10°C° 0 mm 1 mps 741 mmHg 92%
    06:00 +10°C° 0 mm 1 mps 741 mmHg 91%
    07:00 +11°C° 0 mm 1 mps 741 mmHg 90%
    08:00 +13°C° 0 mm 2 mps 741 mmHg 82%
    09:00 +16°C° 0 mm 2 mps 741 mmHg 73%
    10:00 +18°C° 0 mm 2 mps 740 mmHg 65%
    11:00 +19°C° 0 mm 3 mps 740 mmHg 61%
    12:00 +20°C° 0 mm 3 mps 739 mmHg 57%
    13:00 +21°C° 0 mm 3 mps 739 mmHg 54%
    14:00 +21°C° 0 mm 3 mps 738 mmHg 55%
    15:00 +21°C° 0 mm 3 mps 737 mmHg 56%
    16:00 +20°C° 0 mm 3 mps 737 mmHg 57%
    17:00 +18°C° 0 mm 3 mps 736 mmHg 67%
    18:00 +16°C° 0 mm 3 mps 736 mmHg 76%
    19:00 +14°C° 0 mm 2 mps 736 mmHg 85%
    20:00 +13°C° 0 mm 2 mps 736 mmHg 87%
    21:00 +12°C° 0 mm 2 mps 736 mmHg 89%
    22:00 +10°C° 0 mm 2 mps 735 mmHg 92%
    23:00 +10°C° 0 mm 2 mps 735 mmHg 92%

    1 April, Saturday

    Time Temperature Precipitation Wind Pressure Humidity
    00:00 +9°C° 0 mm 2 mps 735 mmHg 93%
    01:00 +10°C° 0 mm 1 mps 735 mmHg 94%
    02:00 +9°C° 0 mm 1 mps 734 mmHg 94%
    03:00 +9°C° 0 mm 1 mps 734 mmHg 94%
    04:00 +9°C° 0 mm 1 mps 734 mmHg 94%
    05:00 +9°C° 0 mm 1 mps 734 mmHg 91%
    06:00 +10°C° 0 mm 1 mps 734 mmHg 88%
    07:00 +11°C° 0 mm 1 mps 734 mmHg 85%
    08:00 +13°C° 0 mm 1 mps 734 mmHg 76%
    09:00 +15°C° 0 mm 1 mps 734 mmHg 67%
    10:00 +18°C° 0 mm 1 mps 734 mmHg 58%
    11:00 +19°C° 0 mm 1 mps 734 mmHg 56%
    12:00 +19°C° 0 mm 2 mps 734 mmHg 54%
    13:00 +20°C° 0 mm 2 mps 734 mmHg 51%
    14:00 +20°C° 0 mm 2 mps 734 mmHg 53%
    15:00 +20°C° 0 mm 2 mps 734 mmHg 55%
    16:00 +20°C° 0 mm 1 mps 733 mmHg 57%
    17:00 +18°C° 0 mm 1 mps 733 mmHg 68%
    18:00 +14°C° 0 mm 1 mps 733 mmHg 79%
    19:00 +11°C° 0 mm 1 mps 733 mmHg 89%
    20:00 +11°C° 0 mm 1 mps 734 mmHg 90%
    21:00 +10°C° 0 mm 1 mps 734 mmHg 91%
    22:00 +9°C° 0 mm 0 mps 734 mmHg 92%
    23:00 +8°C° 0 mm 0 mps 734 mmHg 92%
    Show more